Location: Newark
(37.9128°N, 122.4756°W)
Time: 17:07:48
(UTC+00:00)

ISS - Visible Passes

Search period start: 25 February 2021 00:00
Search period end: 07 March 2021 00:00
Orbit: 417 x 422 km, 51.6° (Epoch: 26 February)

Date Brightness Start Highest point End Pass type
(mag) Time Alt. Az. Time Alt. Az. Time Alt. Az.
25 Feb -1.9 13:08:03 21° N 13:08:03 21° N 13:09:57 10° NNE visible
26 Feb -0.6 12:22:32 11° NNE 12:22:32 11° NNE 12:22:44 10° NE visible
26 Feb -1.2 13:56:43 10° NNW 13:57:14 10° NNW 13:57:46 10° N visible
27 Feb -1.2 13:09:56 12° N 13:09:56 12° N 13:11:05 10° N visible
04 Mar -1.0 14:03:15 10° N 14:04:40 12° NNE 14:06:06 10° NE visible
06 Mar -1.5 14:04:11 10° NNW 14:06:51 21° NNE 14:09:30 10° E visible
